Tracking 25648 objects as of 17-May-2022
HD Live streaming from Space Station
objects crossing your sky now

COSMOS 2251 DEB

Track COSMOS 2251 DEB now!
10-day predictions


NORAD ID: 37531
Int'l Code: 1993-036BNL
Perigee: 732.5 km
Apogee: 814.7 km
Inclination: 74.0 °
Period: 100.2 minutes
Semi major axis: 7144 km
RCS: 0.0115 m2 (small)
Launch date: June 16, 1993
Source: Commonwealth of Independent States (former USSR) (CIS)
Launch site: PLESETSK MISSILE AND SPACE COMPLEX (PKMTR)

Note: This is SATELLITE DEBRIS
aabbcc
Your satellite tracking list
Your tracking list is empty




NASA's NSSDC Master Catalog

Two Line Element Set (TLE):
1 37531U 93036BNL 22135.50285336  .00003573  00000-0  11768-2 0  9998
2 37531  74.0220 194.1036 0057538 234.1946 125.3853 14.37584216511350
Source of the keplerian elements: AFSPC